Home > Weather > Kinshasa > Past weeks

Flag for Dem. Rep. Congo Weather for the Past 2 Weeks in Kinshasa, Dem. Rep. Congo

Now
81 °F

Passing clouds.


Feels Like: 86 °F
Forecast: 77 / 87 °F
Wind: 7 mph from Southwest

Location: Brazzaville / Maya-Maya

Current Time: Feb 8, 2016 at 9:58:49 AM

Latest Report: Feb 8, 2016 at 9:00 AM


Visibility: 5 mi

Pressure: 30.01 "Hg

Humidity: 84%

Dew point: 75 °F

Location of KinshasaLocation

Historic Weather in Kinshasa — Graph

°F

Kinshasa Temperature Yesterday

Maximum temperature yesterday: 90 °F (at 3:00 PM)
Minimum temperature yesterday: 75 °F (at 2:00 AM)
Average temperature yesterday: 81 °F

High & Low Weather Summary for the Past Weeks

 TemperatureHumidityPressure
High95 °F (Jan 30, 3:00 PM)100% (Feb 5, 11:48 AM)30.07 "Hg (Feb 5, 11:48 AM)
Low72 °F (Feb 5, 11:48 AM)39% (Jan 30, 3:00 PM)29.77 "Hg (Jan 30, 4:00 PM)
Average82 °F74%29.92 "Hg
* Reported Jan 24 8:00 AM — Feb 8 8:00 AM, Kinshasa, Weather by CustomWeather, © 2016

Note: Actual official high and low records may vary slightly from our data, if they occured in-between our weather recording intervals... More about our weather records

Advertising

Kinshasa Weather History for the Previous 24 Hours

 ConditionsComfort  
Time TempWeatherWind HumidityBarometerVisibility
8:00 AM
Mon, Feb 8
77 °FPassing clouds.2 mph94%30.01 "Hg5 mi
7:00 AM77 °FPassing clouds.No wind94%29.98 "Hg5 mi
6:00 AM77 °FClear.3 mph89%29.95 "Hg6 mi
5:00 AM77 °FClear.5 mph94%29.95 "Hg6 mi
4:00 AM77 °FPassing clouds.3 mph94%29.95 "Hg6 mi
3:00 AM79 °FPassing clouds.6 mph89%29.95 "Hg6 mi
2:00 AM79 °FPassing clouds.3 mph89%29.95 "Hg6 mi
1:00 AM79 °FClear.5 mph89%29.95 "Hg6 mi
12:00 AM79 °FClear.6 mph89%29.98 "Hg6 mi
11:00 PM
Sun, Feb 7
82 °FWarm.5 mph79%29.95 "Hg6 mi
10:00 PM82 °FPassing clouds.2 mph74%29.95 "Hg6 mi
9:00 PM82 °FPassing clouds.No wind74%29.95 "Hg6 mi
8:00 PM82 °FPassing clouds.No wind79%29.92 "Hg6 mi
7:00 PM84 °FPassing clouds.1 mph74%29.89 "Hg6 mi
6:00 PM86 °FPassing clouds.3 mph70%29.86 "HgN/A
5:00 PM88 °FPassing clouds.6 mph66%29.86 "HgN/A
4:00 PM88 °FScattered clouds.7 mph62%29.86 "HgN/A
3:00 PM90 °FScattered clouds.6 mph59%29.89 "HgN/A
2:00 PM88 °FScattered clouds.8 mph66%29.92 "HgN/A
1:00 PM86 °FScattered clouds.7 mph66%29.95 "HgN/A
12:00 PM86 °FScattered clouds.5 mph70%29.98 "Hg5 mi
11:00 AM82 °FScattered clouds.6 mph74%30.01 "Hg5 mi
10:00 AM81 °FScattered clouds.9 mph79%30.01 "Hg5 mi
9:00 AM79 °FPassing clouds.5 mph84%30.01 "Hg5 mi
Weather by CustomWeather, © 2016

See weather overviewHow to use our weather pages